Ketchikan, AK

9:21 PM AKDT on October 15, 2018 (GMT -0800)
Ketchikan International

Weather History for PAKT - May, 2018

Change the Weather History Date:

Thursday, May 10, 2018

  Actual Average Record
Temperature  
Mean Temperature 52 °F -  
Max Temperature 59 °F 56 °F 74 °F (1968)
Min Temperature 46 °F 40 °F 30 °F (1998)
Degree Days  
Heating Degree Days 14    
Growing Degree Days 2 (Base 50)    
Moisture  
Dew Point 47 °F    
Average Humidity 85    
Maximum Humidity 97    
Minimum Humidity 67    
Precipitation  
Precipitation 0.05 in - - ()
Sea Level Pressure  
Sea Level Pressure 30.11 in    
Wind  
Wind Speed 6 mph (SE)    
Max Wind Speed 16 mph    
Max Gust Speed 20 mph    
Visibility 10 miles    
Events Rain    
Averages and records for this station are not official NWS values.
T = Trace of Precipitation, MM = Missing Value Source: NWS Daily Summary

Daily Weather History Graph

Daily Weather History Graph

Search for Another Location

Airport or City:

Astronomy

May. 10, 2018 Rise Set
Actual Time 4:46 AM AKDT 8:41 PM AKDT
Civil Twilight 3:59 AM AKDT 9:28 PM AKDT
Nautical Twilight 2:52 AM AKDT 10:36 PM AKDT
Astronomical Twilight 1:15 AM AKDT 12:10 AM AKDT
Moon 3:37 AM AKDT (5/10) 2:33 PM AKDT (5/10)
Length of Visible Light 17h 28m
Length of Day
15h 55m
Waning Crescent, 24% of the Moon is Illuminated
May 10
Waning Crescent
May 15
New
May 21
First Quarter
May 29
Full
Jun 6
Last Quarter

Hourly Weather History & Observations

Time (AKDT) Temp. Dew Point Humidity Pressure Visibility Wind Dir Wind Speed Gust Speed Precip Events Conditions
12:53 AM 46.9 °F 45.0 °F 93% 29.94 in 10.0 mi NW 5.8 mph - N/A   Mostly Cloudy
1:23 AM 46.9 °F 46.0 °F 97% 29.96 in 10.0 mi SSE 6.9 mph - 0.00 in Rain Light Rain
1:53 AM 46.9 °F 46.0 °F 97% 29.95 in 7.0 mi SW 5.8 mph - 0.05 in Rain Light Rain
2:53 AM 46.9 °F 46.0 °F 97% 29.96 in 10.0 mi SE 3.5 mph - 0.00 in   Overcast
3:53 AM 46.9 °F 46.0 °F 97% 29.99 in 10.0 mi SSW 3.5 mph - N/A   Overcast
4:35 AM 48.0 °F 46.9 °F 96% 29.98 in 10.0 mi Calm Calm - 0.00 in Rain Light Rain
4:53 AM 48.0 °F 46.0 °F 93% 30.00 in 10.0 mi Calm Calm - 0.00 in   Overcast
5:53 AM 48.0 °F 46.9 °F 96% 30.01 in 10.0 mi ESE 3.5 mph - 0.00 in   Mostly Cloudy
6:03 AM 48.2 °F 46.4 °F 93% 30.01 in 10.0 mi Calm Calm - N/A   Overcast
6:53 AM 50.0 °F 48.2 °F 94% 30.03 in 10.0 mi Calm Calm - N/A   Overcast
7:53 AM 51.8 °F 48.2 °F 88% 30.04 in 10.0 mi Calm Calm - N/A   Overcast
8:53 AM 51.8 °F 48.2 °F 88% 30.06 in 10.0 mi NNW 3.5 mph - N/A   Overcast
9:53 AM 53.6 °F 50.0 °F 88% 30.09 in 10.0 mi ESE 8.1 mph - N/A Rain Light Rain
10:53 AM 57.2 °F 50.0 °F 77% 30.10 in 10.0 mi ESE 9.2 mph - N/A   Mostly Cloudy
11:53 AM 55.4 °F 50.0 °F 82% 30.12 in 10.0 mi East 11.5 mph - N/A Rain Light Rain
12:53 PM 57.2 °F 46.4 °F 67% 30.14 in 10.0 mi SE 12.7 mph 19.6 mph N/A   Mostly Cloudy
1:53 PM 57.2 °F 46.4 °F 67% 30.16 in 10.0 mi ESE 16.1 mph - N/A   Mostly Cloudy
2:53 PM 57.2 °F 46.4 °F 67% 30.17 in 10.0 mi SE 15.0 mph - N/A   Mostly Cloudy
3:53 PM 57.0 °F 46.0 °F 67% 30.18 in 10.0 mi SE 13.8 mph - N/A   Scattered Clouds
4:53 PM 55.4 °F 46.4 °F 72% 30.19 in 10.0 mi ESE 15.0 mph - N/A   Mostly Cloudy
5:53 PM 55.4 °F 46.4 °F 72% 30.20 in 10.0 mi ESE 15.0 mph - N/A   Scattered Clouds
6:53 PM 55.4 °F 46.4 °F 72% 30.21 in 10.0 mi ESE 11.5 mph - N/A   Clear
7:53 PM 51.8 °F 46.4 °F 82% 30.24 in 10.0 mi SE 4.6 mph - N/A   Clear
8:53 PM 51.8 °F 46.4 °F 82% 30.25 in 10.0 mi SSE 8.1 mph - N/A   Scattered Clouds
9:53 PM 50.0 °F 48.0 °F 93% 30.28 in 10.0 mi SE 9.2 mph - N/A   Overcast
10:06 PM 48.9 °F 46.9 °F 93% 30.27 in 10.0 mi SSE 8.1 mph - N/A   Overcast
10:53 PM 48.9 °F 46.9 °F 93% 30.30 in 10.0 mi SSE 5.8 mph - N/A   Overcast
11:53 PM 50.0 °F 46.9 °F 89% 30.32 in 10.0 mi SSE 5.8 mph - N/A   Overcast